Location: Avenches
(46.8809°N, 7.0410°E)
Time: 18:29:59
(UTC+00:00)

USA 186 - Pass Details

Date: 30 March 2020
Orbit: 263 x 445 km, 96.9° (Epoch: 31 May)

Event Time Altitude Azimuth Distance (km) Brightness Sun altitude
Rises 17:57:15 0° 127° (SE) 2,465 5.1 -0.6°
Reaches altitude 10° 17:59:52 10° 105° (ESE) 1,592 4.0 -1.0°
Drops below altitude 10° 18:04:07 10° 28° (NNE) 1,577 4.5 -1.7°
Enters shadow 19:01:51 -59° 170° (S) 11,327 8.9 -11.3°
Maximum altitude 19:32:42 38° 262° (W) 711 3.4 -16.2°
